| time (UTC) | temp F | wind direction | speed knots | gust knots | rain 1hr in | rain 24hr in | rain mn in | humidity % | barometer mb |
| 20260504012043 | 61 | 240 | 0.0 | 0.0 | 0.00 | 0.00 | 0.00 | 70 | 1016.1 |
| 20260504011542 | 62 | 240 | 0.0 | 0.0 | 0.00 | 0.00 | 0.00 | 69 | 1016.1 |
| 20260504011042 | 62 | 240 | 0.0 | 1.7 | 0.00 | 0.00 | 0.00 | 68 | 1016.0 |
| 20260504010542 | 63 | 240 | 0.0 | 1.7 | 0.00 | 0.00 | 0.00 | 69 | 1016.0 |
| 20260504010043 | 63 | 240 | 0.0 | 1.7 | 0.00 | 0.00 | 0.00 | 68 | 1016.0 |
| 20260504005542 | 63 | 240 | 0.0 | 2.6 | 0.00 | 0.00 | 0.00 | 68 | 1016.0 |
| 20260504005045 | 64 | 218 | 0.0 | 2.6 | 0.00 | 0.00 | 0.00 | 67 | 1015.8 |
| 20260504004542 | 64 | 233 | 0.0 | 2.6 | 0.00 | 0.00 | 0.00 | 67 | 1015.8 |
| 20260504004041 | 64 | 204 | 0.0 | 2.6 | 0.00 | 0.00 | 0.00 | 65 | 1015.7 |
| 20260504003541 | 65 | 290 | 0.0 | 0.9 | 0.00 | 0.00 | 0.00 | 63 | 1015.7 |
| 20260504003044 | 66 | 344 | 0.0 | 0.0 | 0.00 | 0.00 | 0.00 | 61 | 1015.5 |
| 20260504002541 | 67 | 344 | 0.0 | 0.0 | 0.00 | 0.00 | 0.00 | 62 | 1015.4 |
| 20260504002040 | 68 | 344 | 0.0 | 0.0 | 0.00 | 0.00 | 0.00 | 57 | 1015.4 |
| 20260504001540 | 69 | 344 | 0.0 | 0.0 | 0.00 | 0.00 | 0.00 | 56 | 1015.4 |
| 20260504001040 | 69 | 344 | 0.0 | 0.0 | 0.00 | 0.00 | 0.00 | 57 | 1015.3 |
| 20260504000541 | 70 | 344 | 0.0 | 0.0 | 0.00 | 0.00 | 0.00 | 54 | 1015.4 |
| 20260504000056 | 70 | 344 | 0.0 | 0.0 | 0.00 | 0.00 | 0.00 | 50 | 1015.4 |
| 20260503235538 | 71 | 344 | 0.0 | 0.0 | 0.00 | 0.00 | 0.00 | 46 | 1015.3 |
| 20260503235038 | 72 | 344 | 0.0 | 1.7 | 0.00 | 0.00 | 0.00 | 44 | 1015.3 |
| 20260503234538 | 72 | 344 | 0.0 | 2.6 | 0.00 | 0.00 | 0.00 | 44 | 1015.4 |
| 20260503234038 | 73 | 355 | 0.0 | 2.6 | 0.00 | 0.00 | 0.00 | 45 | 1015.5 |
| 20260503233537 | 73 | 11 | 0.0 | 2.6 | 0.00 | 0.00 | 0.00 | 43 | 1015.5 |
| 20260503233040 | 74 | 341 | 0.0 | 1.7 | 0.00 | 0.00 | 0.00 | 43 | 1015.5 |
| 20260503232536 | 75 | 355 | 0.0 | 1.7 | 0.00 | 0.00 | 0.00 | 41 | 1015.5 |
| 20260503232036 | 75 | 355 | 0.0 | 1.7 | 0.00 | 0.00 | 0.00 | 38 | 1015.5 |
| 20260503231536 | 75 | 5 | 0.0 | 7.0 | 0.00 | 0.00 | 0.00 | 37 | 1015.6 |
| 20260503231036 | 75 | 9 | 1.7 | 7.8 | 0.00 | 0.00 | 0.00 | 37 | 1015.5 |
| 20260503230535 | 75 | 5 | 1.7 | 7.8 | 0.00 | 0.00 | 0.00 | 36 | 1015.6 |
| 20260503230035 | 75 | 19 | 0.0 | 7.8 | 0.00 | 0.00 | 0.00 | 39 | 1015.6 |
| 20260503225635 | 75 | 32 | 1.7 | 7.8 | 0.00 | 0.00 | 0.00 | 36 | 1015.6 |
| 20260503225034 | 75 | 344 | 1.7 | 7.0 | 0.00 | 0.00 | 0.00 | 37 | 1015.5 |
| 20260503224534 | 75 | 346 | 1.7 | 7.0 | 0.00 | 0.00 | 0.00 | 37 | 1015.5 |
| 20260503224034 | 75 | 5 | 1.7 | 5.2 | 0.00 | 0.00 | 0.00 | 38 | 1015.5 |
| 20260503223535 | 75 | 9 | 1.7 | 7.0 | 0.00 | 0.00 | 0.00 | 34 | 1015.4 |
| 20260503223034 | 75 | 22 | 0.9 | 7.0 | 0.00 | 0.00 | 0.00 | 35 | 1015.5 |
| 20260503222533 | 75 | 17 | 3.5 | 7.0 | 0.00 | 0.00 | 0.00 | 35 | 1015.5 |
| 20260503222033 | 76 | 38 | 1.7 | 5.2 | 0.00 | 0.00 | 0.00 | 34 | 1015.4 |
| 20260503221535 | 76 | 347 | 2.6 | 5.2 | 0.00 | 0.00 | 0.00 | 35 | 1015.4 |
| 20260503221031 | 76 | 344 | 1.7 | 5.2 | 0.00 | 0.00 | 0.00 | 34 | 1015.4 |
| 20260503220531 | 76 | 343 | 0.0 | 7.0 | 0.00 | 0.00 | 0.00 | 35 | 1015.5 |
| 20260503220031 | 75 | 18 | 2.6 | 7.0 | 0.00 | 0.00 | 0.00 | 34 | 1015.5 |
| 20260503215532 | 75 | 325 | 0.9 | 5.2 | 0.00 | 0.00 | 0.00 | 35 | 1015.5 |
| 20260503215033 | 75 | 310 | 1.7 | 7.0 | 0.00 | 0.00 | 0.00 | 33 | 1015.6 |
| 20260503214531 | 75 | 19 | 3.5 | 9.6 | 0.00 | 0.00 | 0.00 | 35 | 1015.6 |
| 20260503214029 | 75 | 306 | 3.5 | 9.6 | 0.00 | 0.00 | 0.00 | 35 | 1015.6 |
| 20260503213528 | 76 | 323 | 0.9 | 8.7 | 0.00 | 0.00 | 0.00 | 36 | 1015.7 |
| 20260503213027 | 75 | 44 | 2.6 | 8.7 | 0.00 | 0.00 | 0.00 | 33 | 1015.8 |
| 20260503212528 | 76 | 351 | 3.5 | 8.7 | 0.00 | 0.00 | 0.00 | 36 | 1015.7 |
| 20260503212025 | 75 | 346 | 2.6 | 7.8 | 0.00 | 0.00 | 0.00 | 34 | 1015.8 |
| 20260503211525 | 75 | 322 | 3.5 | 7.0 | 0.00 | 0.00 | 0.00 | 35 | 1015.8 |
| 20260503211024 | 75 | 355 | 1.7 | 7.0 | 0.00 | 0.00 | 0.00 | 34 | 1016.0 |
| 20260503210523 | 75 | 336 | 3.5 | 9.6 | 0.00 | 0.00 | 0.00 | 36 | 1016.1 |
| 20260503210023 | 76 | 344 | 3.5 | 9.6 | 0.00 | 0.00 | 0.00 | 35 | 1016.1 |
| 20260503205524 | 76 | 138 | 0.9 | 8.7 | 0.00 | 0.00 | 0.00 | 36 | 1016.2 |
| 20260503205022 | 75 | 283 | 1.7 | 8.7 | 0.00 | 0.00 | 0.00 | 37 | 1016.3 |
| 20260503204520 | 75 | 350 | 3.5 | 7.8 | 0.00 | 0.00 | 0.00 | 36 | 1016.4 |
| 20260503204019 | 75 | 57 | 1.7 | 8.7 | 0.00 | 0.00 | 0.00 | 34 | 1016.4 |
| 20260503203521 | 75 | 360 | 3.5 | 8.7 | 0.00 | 0.00 | 0.00 | 35 | 1016.6 |
| 20260503203019 | 75 | 321 | 2.6 | 7.0 | 0.00 | 0.00 | 0.00 | 34 | 1016.6 |
| 20260503202517 | 75 | 348 | 3.5 | 8.7 | 0.00 | 0.00 | 0.00 | 33 | 1016.7 |
| 20260503202019 | 75 | 344 | 2.6 | 7.8 | 0.00 | 0.00 | 0.00 | 34 | 1016.7 |
| 20260503201516 | 75 | 71 | 1.7 | 8.7 | 0.00 | 0.00 | 0.00 | 36 | 1016.7 |
| 20260503201018 | 75 | 18 | 4.3 | 8.7 | 0.00 | 0.00 | 0.00 | 35 | 1016.7 |
| 20260503200515 | 75 | 69 | 2.6 | 7.8 | 0.00 | 0.00 | 0.00 | 32 | 1016.7 |
| 20260503200015 | 75 | 355 | 3.5 | 7.8 | 0.00 | 0.00 | 0.00 | 35 | 1016.8 |
| 20260503195514 | 75 | 31 | 0.9 | 7.0 | 0.00 | 0.00 | 0.00 | 35 | 1017.0 |
| 20260503195013 | 75 | 5 | 1.7 | 5.2 | 0.00 | 0.00 | 0.00 | 36 | 1017.0 |
| 20260503194515 | 74 | 250 | 1.7 | 8.7 | 0.00 | 0.00 | 0.00 | 34 | 1017.1 |
| 20260503194012 | 75 | 9 | 3.5 | 8.7 | 0.00 | 0.00 | 0.00 | 35 | 1017.2 |
| 20260503193514 | 74 | 93 | 3.5 | 10.4 | 0.00 | 0.00 | 0.00 | 34 | 1017.3 |
| 20260503193012 | 74 | 63 | 4.3 | 9.6 | 0.00 | 0.00 | 0.00 | 33 | 1017.4 |
| 20260503192511 | 74 | 87 | 2.6 | 7.8 | 0.00 | 0.00 | 0.00 | 35 | 1017.4 |
| 20260503192013 | 74 | 44 | 3.5 | 7.8 | 0.00 | 0.00 | 0.00 | 36 | 1017.5 |
| 20260503191511 | 74 | 40 | 1.7 | 4.3 | 0.00 | 0.00 | 0.00 | 34 | 1017.5 |
| 20260503191010 | 74 | 49 | 0.9 | 7.8 | 0.00 | 0.00 | 0.00 | 33 | 1017.7 |
| 20260503190513 | 74 | 14 | 2.6 | 7.8 | 0.00 | 0.00 | 0.00 | 34 | 1017.9 |
| 20260503190013 | 75 | 38 | 2.6 | 5.2 | 0.00 | 0.00 | 0.00 | 35 | 1017.9 |
| 20260503185508 | 74 | 338 | 2.6 | 5.2 | 0.00 | 0.00 | 0.00 | 36 | 1017.9 |
| 20260503185008 | 74 | 96 | 2.6 | 7.8 | 0.00 | 0.00 | 0.00 | 35 | 1018.2 |
| 20260503184513 | 74 | 53 | 4.3 | 7.8 | 0.00 | 0.00 | 0.00 | 37 | 1018.2 |
| 20260503184008 | 74 | 334 | 2.6 | 5.2 | 0.00 | 0.00 | 0.00 | 36 | 1018.3 |
| 20260503183505 | 74 | 279 | 2.6 | 5.2 | 0.00 | 0.00 | 0.00 | 35 | 1018.3 |
| 20260503183006 | 73 | 275 | 1.7 | 7.8 | 0.00 | 0.00 | 0.00 | 35 | 1018.5 |
| 20260503182505 | 73 | 323 | 3.5 | 7.8 | 0.00 | 0.00 | 0.00 | 34 | 1018.5 |
| 20260503182006 | 73 | 25 | 2.6 | 8.7 | 0.00 | 0.00 | 0.00 | 35 | 1018.5 |
| 20260503181505 | 73 | 74 | 3.5 | 8.7 | 0.00 | 0.00 | 0.00 | 34 | 1018.6 |
| 20260503181005 | 73 | 30 | 4.3 | 8.7 | 0.00 | 0.00 | 0.00 | 35 | 1018.6 |
| 20260503180502 | 73 | 99 | 2.6 | 8.7 | 0.00 | 0.00 | 0.00 | 33 | 1018.6 |
| 20260503180002 | 73 | 331 | 5.2 | 9.6 | 0.00 | 0.00 | 0.00 | 35 | 1018.7 |
| 20260503175503 | 73 | 360 | 2.6 | 6.1 | 0.00 | 0.00 | 0.00 | 38 | 1018.7 |
| 20260503175001 | 73 | 109 | 2.6 | 11.3 | 0.00 | 0.00 | 0.00 | 35 | 1018.7 |
| 20260503174504 | 72 | 65 | 7.0 | 11.3 | 0.00 | 0.00 | 0.00 | 36 | 1018.7 |
| 20260503174100 | 72 | 92 | 3.5 | 10.4 | 0.00 | 0.00 | 0.00 | 35 | 1018.7 |
| 20260503173600 | 73 | 70 | 4.3 | 10.4 | 0.00 | 0.00 | 0.00 | 37 | 1018.8 |
| 20260503173100 | 73 | 98 | 3.5 | 10.4 | 0.00 | 0.00 | 0.00 | 37 | 1018.9 |
| 20260503172558 | 72 | 64 | 3.5 | 10.4 | 0.00 | 0.00 | 0.00 | 36 | 1018.8 |
| 20260503172057 | 72 | 37 | 5.2 | 10.4 | 0.00 | 0.00 | 0.00 | 36 | 1018.9 |
| 20260503171612 | 72 | 67 | 2.6 | 9.6 | 0.00 | 0.00 | 0.00 | 36 | 1019.0 |
| 20260503171059 | 72 | 343 | 5.2 | 9.6 | 0.00 | 0.00 | 0.00 | 36 | 1019.1 |
| 20260503170555 | 72 | 355 | 2.6 | 9.6 | 0.00 | 0.00 | 0.00 | 38 | 1019.1 |
| 20260503170105 | 72 | 28 | 5.2 | 9.6 | 0.00 | 0.00 | 0.00 | 36 | 1019.2 |
| 20260503150534 | 69 | 61 | 3.5 | 8.7 | 0.00 | 0.00 | 0.00 | 43 | 1020.0 |
| 20260503131003 | 58 | 360 | 0.0 | 1.7 | 0.00 | 0.00 | 0.00 | 85 | 1019.3 |
| 20260503130503 | 57 | 360 | 0.0 | 1.7 | 0.00 | 0.00 | 0.00 | 86 | 1019.3 |
| 20260503110533 | 43 | 346 | 0.0 | 1.7 | 0.00 | 0.00 | 0.00 | 95 | 1018.4 |
| 20260503081515 | 45 | 65 | 0.0 | 0.0 | 0.00 | 0.20 | 0.00 | 94 | 1017.3 |
| 20260503081011 | 46 | 65 | 0.0 | 0.0 | 0.00 | 0.20 | 0.00 | 94 | 1017.3 |
| 20260503080513 | 46 | 65 | 0.0 | 1.7 | 0.00 | 0.20 | 0.00 | 94 | 1017.2 |
| 20260503072507 | 46 | 65 | 0.0 | 1.7 | 0.00 | 0.39 | 0.00 | 94 | 1016.8 |
| 20260503072006 | 46 | 65 | 0.0 | 0.9 | 0.00 | 0.39 | 0.00 | 94 | 1016.9 |
| 20260503071506 | 46 | 65 | 0.0 | 0.9 | 0.00 | 0.39 | 0.00 | 94 | 1016.9 |
| 20260503071008 | 46 | 65 | 0.0 | 1.7 | 0.00 | 0.39 | 0.00 | 94 | 1016.9 |
| 20260503070506 | 46 | 65 | 0.0 | 1.7 | 0.00 | 0.39 | 0.00 | 94 | 1017.0 |
| 20260503055055 | 48 | 349 | 0.0 | 0.0 | 0.00 | 0.54 | 0.00 | 94 | 1016.7 |
| 20260503054601 | 48 | 349 | 0.0 | 0.0 | 0.00 | 0.54 | 0.00 | 94 | 1016.7 |
| 20260503054059 | 48 | 349 | 0.0 | 0.0 | 0.00 | 0.54 | 0.00 | 94 | 1016.7 |
| 20260503053554 | 48 | 349 | 0.0 | 0.0 | 0.00 | 0.54 | 0.00 | 93 | 1016.7 |
| 20260503053054 | 48 | 349 | 0.0 | 0.0 | 0.00 | 0.54 | 0.00 | 93 | 1016.7 |
| 20260503052553 | 48 | 349 | 0.0 | 0.0 | 0.00 | 0.54 | 0.00 | 93 | 1016.6 |
| 20260503052052 | 48 | 349 | 0.0 | 0.0 | 0.00 | 0.54 | 0.00 | 93 | 1016.7 |
| 20260503051550 | 48 | 349 | 0.0 | 0.0 | 0.00 | 0.54 | 0.00 | 93 | 1016.6 |
| 20260503051051 | 48 | 349 | 0.0 | 0.0 | 0.00 | 0.54 | 0.00 | 93 | 1016.5 |
| 20260503050549 | 48 | 349 | 0.0 | 0.0 | 0.00 | 0.54 | 0.00 | 93 | 1016.6 |
| 20260503050049 | 48 | 349 | 0.0 | 0.0 | 0.00 | 0.54 | 0.00 | 93 | 1016.6 |
| 20260503045547 | 49 | 349 | 0.0 | 0.0 | 0.00 | 0.54 | 0.54 | 92 | 1016.5 |
| 20260503045046 | 49 | 349 | 0.0 | 0.0 | 0.00 | 0.54 | 0.54 | 92 | 1016.5 |
| 20260503044552 | 49 | 349 | 0.0 | 0.0 | 0.00 | 0.54 | 0.54 | 93 | 1016.4 |
| 20260503044045 | 49 | 349 | 0.0 | 0.0 | 0.00 | 0.54 | 0.54 | 93 | 1016.4 |
| 20260503043549 | 49 | 349 | 0.0 | 1.7 | 0.00 | 0.54 | 0.54 | 93 | 1016.4 |
| 20260503043049 | 49 | 349 | 0.0 | 1.7 | 0.00 | 0.54 | 0.54 | 93 | 1016.4 |
| 20260503042546 | 49 | 349 | 0.0 | 0.0 | 0.00 | 0.54 | 0.54 | 92 | 1016.4 |
| 20260503042043 | 49 | 349 | 0.0 | 0.0 | 0.00 | 0.54 | 0.54 | 91 | 1016.4 |
| 20260503041546 | 49 | 349 | 0.0 | 0.0 | 0.00 | 0.54 | 0.54 | 91 | 1016.4 |
| 20260503041040 | 49 | 349 | 0.0 | 0.0 | 0.00 | 0.54 | 0.54 | 92 | 1016.3 |
| 20260503040540 | 49 | 349 | 0.0 | 0.0 | 0.00 | 0.54 | 0.54 | 91 | 1016.3 |
| 20260503040042 | 50 | 349 | 0.0 | 0.0 | 0.00 | 0.54 | 0.54 | 91 | 1016.3 |
| 20260503035539 | 50 | 349 | 0.0 | 0.0 | 0.00 | 0.69 | 0.54 | 90 | 1016.3 |
| 20260503035042 | 50 | 349 | 0.0 | 0.0 | 0.00 | 0.69 | 0.54 | 91 | 1016.2 |
| 20260503034538 | 50 | 349 | 0.0 | 0.0 | 0.00 | 0.69 | 0.54 | 91 | 1016.1 |
| 20260503034037 | 50 | 349 | 0.0 | 0.0 | 0.00 | 0.69 | 0.54 | 90 | 1016.1 |
| 20260503033540 | 50 | 349 | 0.0 | 0.0 | 0.00 | 0.69 | 0.54 | 90 | 1016.1 |
| 20260503033035 | 51 | 349 | 0.0 | 0.0 | 0.00 | 0.69 | 0.54 | 90 | 1016.0 |
| 20260503032634 | 51 | 349 | 0.0 | 0.0 | 0.00 | 0.69 | 0.54 | 90 | 1016.0 |
| 20260503032035 | 51 | 349 | 0.0 | 0.0 | 0.00 | 0.69 | 0.54 | 89 | 1015.9 |
| 20260503031534 | 51 | 349 | 0.0 | 0.0 | 0.00 | 0.69 | 0.54 | 88 | 1015.9 |
| 20260503031032 | 51 | 349 | 0.0 | 0.0 | 0.00 | 0.69 | 0.54 | 88 | 1015.8 |
| 20260503030530 | 51 | 349 | 0.0 | 0.0 | 0.00 | 0.69 | 0.54 | 87 | 1015.8 |
| 20260503030029 | 52 | 349 | 0.0 | 0.0 | 0.00 | 0.69 | 0.54 | 87 | 1015.7 |
| 20260503025528 | 52 | 349 | 0.0 | 1.7 | 0.00 | 0.86 | 0.54 | 87 | 1015.7 |
| 20260503025028 | 52 | 349 | 0.0 | 1.7 | 0.00 | 0.86 | 0.54 | 86 | 1015.7 |
| 20260503024527 | 52 | 349 | 0.0 | 1.7 | 0.00 | 0.86 | 0.54 | 85 | 1015.7 |
| 20260503024026 | 53 | 349 | 0.0 | 1.7 | 0.00 | 0.86 | 0.54 | 85 | 1015.6 |
| 20260503023524 | 53 | 349 | 0.0 | 0.0 | 0.00 | 0.86 | 0.54 | 85 | 1015.6 |
| 20260503023023 | 53 | 349 | 0.0 | 0.0 | 0.00 | 0.86 | 0.54 | 83 | 1015.5 |
| 20260503022524 | 54 | 349 | 0.0 | 0.0 | 0.00 | 0.86 | 0.54 | 82 | 1015.4 |
| 20260503022027 | 54 | 349 | 0.0 | 0.0 | 0.00 | 0.86 | 0.54 | 81 | 1015.3 |
| 20260503021522 | 54 | 349 | 0.0 | 0.0 | 0.00 | 0.86 | 0.54 | 79 | 1015.3 |
| 20260503021022 | 55 | 349 | 0.0 | 0.0 | 0.00 | 0.86 | 0.54 | 79 | 1015.2 |
| 20260503020521 | 55 | 349 | 0.0 | 0.0 | 0.00 | 0.86 | 0.54 | 78 | 1015.2 |
| 20260503020021 | 56 | 349 | 0.0 | 0.0 | 0.00 | 0.86 | 0.54 | 77 | 1015.1 |
| 20260503015520 | 56 | 349 | 0.0 | 0.0 | 0.00 | 1.01 | 0.54 | 76 | 1015.0 |
| 20260503015019 | 57 | 349 | 0.0 | 0.0 | 0.00 | 1.01 | 0.54 | 74 | 1015.0 |
| 20260503014518 | 57 | 349 | 0.0 | 0.0 | 0.00 | 1.01 | 0.54 | 73 | 1014.9 |
| 20260503014018 | 58 | 349 | 0.0 | 0.0 | 0.00 | 1.01 | 0.54 | 71 | 1014.9 |
| 20260503013518 | 58 | 349 | 0.0 | 0.0 | 0.00 | 1.01 | 0.54 | 70 | 1014.8 |
| 20260503013017 | 59 | 349 | 0.0 | 0.0 | 0.00 | 1.01 | 0.54 | 69 | 1014.7 |
| 20260503012516 | 60 | 349 | 0.0 | 0.0 | 0.00 | 1.01 | 0.54 | 66 | 1014.7 |